Simultaneous Nadir Overpasses (SNOs) Predictions

Prediction of SNOs between AQUA and METOP-B Satellite Orbit:

Table of predicted SNOs for the next 14.0 days since TLE Epoch: 4/10/2020
Index Date (AQUA) Time (AQUA) Lat,Lon (AQUA) SZA (AQUA ) Date (METOP-B) Time (METOP-B) Lat,Lon (METOP-B) SZA (METOP-B ) Distance(km) Time Diff (sec)
1 04/13/2020 01:42:57 -73.77, -31.31 115.40 04/13/2020 01:42:17 -73.77, -31.42 115.40 3.46 40
2 04/13/2020 02:32:27 73.87, 136.09 64.70 04/13/2020 02:32:55 73.87, 136.17 64.70 2.35 28
3 04/15/2020 21:17:13 -73.83, 35.00 116.35 04/15/2020 21:16:39 -73.81, 35.08 116.37 3.31 34
4 04/15/2020 22:06:42 73.88,-157.49 63.70 04/15/2020 22:07:18 73.86,-157.45 63.67 2.51 36
5 04/18/2020 16:51:27 -73.79, 101.53 117.39 04/18/2020 16:51:02 -73.80, 101.46 117.37 2.19 25
6 04/18/2020 17:40:56 73.85, -90.97 62.67 04/18/2020 17:41:41 73.85, -91.08 62.67 3.41 45
7 04/21/2020 11:36:02 73.09, 1.79 60.93 04/21/2020 11:34:57 73.05, -1.14 60.99 95.02 65
8 04/21/2020 12:25:41 -73.81, 167.92 118.33 04/21/2020 12:25:23 -73.84, 167.96 118.30 3.28 18
9 04/21/2020 13:15:10 73.87, -24.58 61.73 04/21/2020 13:16:02 73.88, -24.59 61.74 1.42 52
10 04/24/2020 07:10:23 73.43, 67.52 60.35 04/24/2020 07:09:13 73.39, 66.00 60.36 48.62 70
11 04/24/2020 07:59:56 -73.83,-125.70 119.24 04/24/2020 07:59:46 -73.82,-125.67 119.25 1.64 10
12 04/24/2020 08:49:25 73.90, 41.79 60.82 04/24/2020 08:50:24 73.91, 41.89 60.83 3.41 59




NCC Satellite Simultaneous Nadir Overpasses (SNOs) Prediction Service
